Regional Weather Roundup
Issued by NWS Kansas City/Pleasant Hill, MO

Home | Current Version | Previous Version | Text Only | Print | Product List | Glossary On
Versions: 1 2 3 4 5 6 7 8 9 10 11 12 13 14 15 16 17 18 19 20 21 22 23 24 25 26 27 28 29 30 31 32 33 34 35 36 37 38 39 40 41 42 43 44 45 46 47 48 49 50
000
ASUS43 KEAX 192011
RWREAX

WEATHER ROUNDUP FOR EASTERN KANSAS AND NORTHWEST MISSOURI
NATIONAL WEATHER SERVICE KANSAS CITY/PLEASANT HILL MO
300 PM CDT FRI SEP 19 2014

KSZ040-057-103>105-MOZ028-029-037-043-192100-
...KANSAS CITY METROPOLITAN AREA...

CITY           SKY/WX    TMP DP  RH WIND       PRES   REMARKS
K.C. INTL      PTSUNNY   72  67  84 S12       29.98F
K.C. DOWNTOWN  PTSUNNY   77  67  71 S8        29.97F
LEES SUMMIT    CLOUDY    75  67  76 SE9       30.00F
OLATHE - IXD   MOSUNNY   78  69  73 S9        29.99F
OLATHE - OJC   PTSUNNY   76  68  76 S8        29.98F
LAWRENCE       PTSUNNY   76  67  73 S10       29.97F HAZE

$$

MOZ001>008-011>017-020>025-030>033-038>040-044>046-053-054-192100-
...NORTHERN AND CENTRAL MISSOURI...

CITY           SKY/WX    TMP DP  RH WIND       PRES   REMARKS
ST. JOSEPH     PTSUNNY   77  68  73 SE12      29.95F
MOSBY          CLOUDY    73  66  78 SE8       29.98F
WHITEMAN AFB   PTSUNNY   76  66  71 SE7       30.00F
CLINTON        PTSUNNY   79  68  69 S7        30.02F
SEDALIA        PTSUNNY   78  64  61 E12       30.02F
WARSAW         NOT AVBL
MARSHALL       PTSUNNY   79  66  65 SE9       30.00F
CHILLICOTHE      N/A     76  65  68 S10G17    30.00F
MOBERLY        MOSUNNY   79  57  47 S7        30.03F
KIRKSVILLE     SUNNY     76  60  57 S13       30.01F

$$

MOZ041-047>049-056>058-063>065-088>090-097-192100-
...EASTERN AND SOUTHERN MISSOURI...

CITY           SKY/WX    TMP DP  RH WIND       PRES   REMARKS
ST. LOUIS INTL MOSUNNY   79  57  46 S6        30.04F
SPIRIT OF STL  MOSUNNY   77  58  51 S7        30.02F
COLUMBIA       PTSUNNY   76  62  62 SE8       30.03F
JEFFERSON CITY MOSUNNY   77  59  53 VRB6      30.01F
MEXICO         SUNNY     81  63  54 S9        30.02F
HANNIBAL       SUNNY     79  50  36 SE9       30.02F
ROLLA          MOSUNNY   77  60  55 S8        30.02F
OSAGE BEACH    PTSUNNY   77  61  57 SE6       30.03F
SPRINGFIELD    CLOUDY    78  64  61 S10       30.02F
BRANSON        MOSUNNY   81  63  54 SE6       30.04F
NEVADA         MOSUNNY   81  66  61 SE6       30.00F
JOPLIN         PTSUNNY   79  69  71 SW6       30.01F
WEST PLAINS    MOSUNNY   78  60  53 SE9       30.05F

$$

IAZ060-094-KSZ022-034>040-054-083-096-NEZ052-066-093-192100-
...KANSAS...SOUTHEAST NEBRASKA AND IOWA...

CITY           SKY/WX    TMP DP  RH WIND       PRES   REMARKS
TOPEKA         MOSUNNY   80  70  71 S14G22    29.95F
MANHATTAN      MOSUNNY   88  69  53 S12       29.91F HX  92
EMPORIA        SUNNY     77  69  76 SE14      29.97F
CHANUTE        CLOUDY    74  69  85 S10       30.01F
WICHITA        MOSUNNY   90  62  39 S12G21    29.93F HX  90
OMAHA          MOSUNNY   82  67  60 S16       29.83F
LINCOLN        SUNNY     90  65  43 S20G25    29.83F HX  92
FALLS CITY     SUNNY     79  68  69 S14       29.91F
LAMONI         SUNNY     75  65  70 S15G24    29.95F
DES MOINES     PTSUNNY   80  65  59 S17       29.89F

$$




USA.gov is the U.S. government's official web portal to all federal, state and local government web resources and services.